Simultaneous Nadir Overpasses (SNOs) Predictions

Prediction of SNOs between GOES-16 and NOAA-19 Satellite Orbit:

Table of predicted SNOs for the next 14.0 days since TLE Epoch: 7/10/2020
Index Date Time (GOES-16) GOES-16 Lat,Lon NOAA-19 Lat,Lon Distance(km) Time Diff (sec)
1 07/10/2020 23:15:21 0.02, -75.19 0.00, -79.25 450.66 0
2 07/11/2020 23:02:04 0.02, -75.20 -0.22, -76.19 112.74 80
3 07/12/2020 22:53:03 0.02, -75.21 0.44, -73.33 214.15 80
4 07/15/2020 11:13:58 -0.02, -75.25 0.70, -78.27 345.92 80
5 07/16/2020 11:02:17 -0.02, -75.26 0.00, -75.43 19.03 80
6 07/17/2020 10:47:56 -0.02, -75.27 -0.64, -72.57 308.09 80
7 07/19/2020 23:08:58 0.01, -75.28 -0.54, -77.54 258.70 80
8 07/20/2020 22:59:57 0.02, -75.29 0.18, -74.69 68.71 80
9 07/21/2020 22:48:16 0.02, -75.30 0.85, -71.84 396.09 80
10 07/23/2020 11:20:54 -0.02, -75.35 0.95, -79.65 490.65 80
11 07/24/2020 11:09:13 -0.02, -75.36 0.30, -76.79 162.96 80
